Location: Quebec
(46.8000°N, 71.2500°W)
Time: 05:41:04
(UTC-05:00)

N. Korean satellite - Pass Details

Date: 16 October 2017
Orbit: 460 x 514 km, 97.2° (Epoch: 21 November)

Event Time Altitude Azimuth Distance (km) Brightness Sun altitude
Rises 06:25:21 0° 35° (NE) 2,498 10.6 -7.5°
Reaches altitude 10° 06:29:19 10° 82° (E) 1,618 10.8 -6.8°
Maximum altitude 06:29:45 10° 89° (E) 1,606 11.0 -6.7°
Drops below altitude 10° 06:30:11 10° 96° (E) 1,617 11.1 -6.6°
Sets 06:34:08 0° 142° (SE) 2,494 10.9 -6.0°
